When you browse on this site, cookies collect data to enhance your experience and personalize the content and advertising you see.
Visit our Privacy Policy to learn more. By continuing to use the site, you agree to this use of cookies and data.
  • In Portugal
  • List of Countries
  • For 7 days
  • Water Temperature
  • Weather Map
  • Weather Widgets
  • user-avatar
    Login

    Hourly Weather Hrazdan

    Today, 12 December, Thursday

    Time Temperature Precipitation Wind Pressure Humidity
    00:00 -8°C° 0 mm 2 mps 609 mmHg 78%
    01:00 -7°C° 0 mm 1 mps 609 mmHg 79%
    02:00 -7°C° 0 mm 1 mps 609 mmHg 79%
    03:00 -7°C° 0 mm 1 mps 609 mmHg 78%
    04:00 -7°C° 0 mm 1 mps 608 mmHg 80%
    05:00 -7°C° 0 mm 1 mps 608 mmHg 81%
    06:00 -7°C° 0 mm 1 mps 608 mmHg 82%
    07:00 -6°C° 0 mm 1 mps 609 mmHg 82%
    08:00 -6°C° 0 mm 1 mps 609 mmHg 81%
    09:00 -4°C° 0 mm 1 mps 610 mmHg 82%
    10:00 -3°C° 0 mm 1 mps 610 mmHg 81%
    11:00 -2°C° 0 mm 1 mps 610 mmHg 80%
    12:00 -1°C° 0 mm 1 mps 610 mmHg 78%
    13:00 -1°C° 0 mm 1 mps 609 mmHg 79%
    14:00 -1°C° 0 mm 1 mps 609 mmHg 80%
    15:00 -2°C° 0 mm 1 mps 608 mmHg 81%
    16:00 -3°C° 0 mm 1 mps 608 mmHg 79%
    17:00 -4°C° 0 mm 1 mps 608 mmHg 77%
    18:00 -6°C° 0 mm 1 mps 607 mmHg 74%
    19:00 -6°C° 0 mm 1 mps 607 mmHg 74%
    20:00 -6°C° 0 mm 1 mps 607 mmHg 74%
    21:00 -6°C° 0 mm 1 mps 607 mmHg 74%
    22:00 -6°C° 0 mm 1 mps 607 mmHg 75%
    23:00 -4°C° 0 mm 1 mps 607 mmHg 75%

    Tomorrow, 13 December, Friday

    Time Temperature Precipitation Wind Pressure Humidity
    00:00 -4°C° 0 mm 1 mps 607 mmHg 76%
    01:00 -4°C° 0 mm 1 mps 607 mmHg 78%
    02:00 -4°C° 0 mm 1 mps 607 mmHg 79%
    03:00 -4°C° 0 mm 1 mps 606 mmHg 81%
    04:00 -4°C° 0 mm 1 mps 606 mmHg 83%
    05:00 -4°C° 0 mm 1 mps 606 mmHg 84%
    06:00 -4°C° 0 mm 1 mps 606 mmHg 86%
    07:00 -3°C° 0 mm 1 mps 607 mmHg 86%
    08:00 -3°C° 0 mm 1 mps 607 mmHg 85%
    09:00 -2°C° 0 mm 1 mps 608 mmHg 85%
    10:00 -1°C° 0 mm 1 mps 608 mmHg 84%
    11:00 0°C° 0 mm 1 mps 608 mmHg 83%
    12:00 +1°C° 0 mm 1 mps 607 mmHg 82%
    13:00 0°C° 0 mm 1 mps 607 mmHg 83%
    14:00 0°C° 0 mm 1 mps 607 mmHg 84%
    15:00 0°C° 0 mm 1 mps 607 mmHg 86%
    16:00 -1°C° 0 mm 1 mps 607 mmHg 86%
    17:00 -2°C° 0 mm 1 mps 607 mmHg 86%
    18:00 -5°C° 0 mm 2 mps 607 mmHg 86%
    19:00 -5°C° 0 mm 2 mps 607 mmHg 87%
    20:00 -5°C° 0 mm 2 mps 608 mmHg 87%
    21:00 -5°C° 0 mm 2 mps 608 mmHg 88%
    22:00 -4°C° 0 mm 2 mps 608 mmHg 88%
    23:00 -4°C° 0 mm 2 mps 608 mmHg 89%

    Day after tomorrow, 14 December, Saturday

    Time Temperature Precipitation Wind Pressure Humidity
    00:00 -4°C° 0 mm 2 mps 608 mmHg 89%
    01:00 -4°C° 0 mm 2 mps 609 mmHg 90%
    02:00 -4°C° 0 mm 2 mps 609 mmHg 90%
    03:00 -4°C° 0 mm 2 mps 609 mmHg 90%
    04:00 -4°C° 0 mm 2 mps 609 mmHg 91%
    05:00 -4°C° 0 mm 2 mps 609 mmHg 91%
    06:00 -4°C° 0 mm 2 mps 609 mmHg 92%
    07:00 -3°C° 0 mm 2 mps 610 mmHg 91%
    08:00 -3°C° 0 mm 2 mps 610 mmHg 91%
    09:00 -2°C° 0 mm 2 mps 611 mmHg 90%
    10:00 -1°C° 0 mm 2 mps 611 mmHg 90%
    11:00 -1°C° 0 mm 2 mps 611 mmHg 90%
    12:00 +1°C° 0 mm 2 mps 611 mmHg 90%
    13:00 +1°C° 0 mm 2 mps 610 mmHg 89%
    14:00 +1°C° 0 mm 2 mps 610 mmHg 89%
    15:00 +1°C° 0 mm 2 mps 610 mmHg 88%
    16:00 -1°C° 0 mm 2 mps 610 mmHg 88%
    17:00 -3°C° 0 mm 2 mps 610 mmHg 87%
    18:00 -4°C° 0 mm 2 mps 609 mmHg 87%
    19:00 -4°C° 0 mm 2 mps 610 mmHg 86%
    20:00 -4°C° 0 mm 2 mps 610 mmHg 85%
    21:00 -3°C° 0 mm 2 mps 610 mmHg 84%
    22:00 -3°C° 0 mm 2 mps 610 mmHg 84%
    23:00 -3°C° 0 mm 2 mps 610 mmHg 84%

    15 December, Sunday

    Time Temperature Precipitation Wind Pressure Humidity
    00:00 -3°C° 0 mm 2 mps 610 mmHg 84%
    01:00 -3°C° 0 mm 2 mps 610 mmHg 84%
    02:00 -3°C° 0 mm 2 mps 610 mmHg 84%
    03:00 -3°C° 0 mm 2 mps 610 mmHg 84%
    04:00 -3°C° 0 mm 2 mps 610 mmHg 85%
    05:00 -3°C° 0 mm 2 mps 610 mmHg 85%
    06:00 -3°C° 0 mm 2 mps 610 mmHg 86%
    07:00 -2°C° 0 mm 2 mps 610 mmHg 85%
    08:00 -2°C° 0 mm 2 mps 610 mmHg 85%
    09:00 -1°C° 0 mm 2 mps 611 mmHg 85%
    10:00 -1°C° 0 mm 2 mps 611 mmHg 85%
    11:00 +1°C° 0 mm 2 mps 611 mmHg 86%
    12:00 +1°C° 0 mm 2 mps 610 mmHg 86%
    13:00 +1°C° 0 mm 2 mps 610 mmHg 86%
    14:00 +1°C° 0 mm 2 mps 610 mmHg 86%
    15:00 +2°C° 0 mm 1 mps 610 mmHg 86%
    16:00 +1°C° 0 mm 1 mps 610 mmHg 85%
    17:00 0°C° 0 mm 1 mps 610 mmHg 84%
    18:00 -1°C° 0 mm 1 mps 610 mmHg 83%
    19:00 -1°C° 0 mm 1 mps 610 mmHg 82%
    20:00 -1°C° 0 mm 1 mps 610 mmHg 81%
    21:00 -1°C° 0 mm 1 mps 611 mmHg 80%
    22:00 -1°C° 0 mm 1 mps 611 mmHg 80%
    23:00 -1°C° 0 mm 1 mps 611 mmHg 80%

    16 December, Monday

    Time Temperature Precipitation Wind Pressure Humidity
    00:00 -1°C° 0 mm 1 mps 611 mmHg 79%
    01:00 -1°C° 0 mm 1 mps 611 mmHg 79%
    02:00 -1°C° 0 mm 1 mps 611 mmHg 78%
    03:00 -2°C° 0 mm 1 mps 611 mmHg 77%
    04:00 -1°C° 0 mm 1 mps 611 mmHg 77%
    05:00 -2°C° 0 mm 0 mps 611 mmHg 76%
    06:00 -2°C° 0 mm 0 mps 611 mmHg 76%
    07:00 -1°C° 0 mm 0 mps 612 mmHg 76%
    08:00 -1°C° 0 mm 0 mps 613 mmHg 76%
    09:00 0°C° 0 mm 0 mps 613 mmHg 76%
    10:00 +2°C° 0 mm 1 mps 613 mmHg 79%
    11:00 +2°C° 0 mm 1 mps 613 mmHg 82%
    12:00 +3°C° 0 mm 1 mps 613 mmHg 86%
    13:00 +3°C° 0 mm 1 mps 613 mmHg 86%
    14:00 +3°C° 0 mm 1 mps 613 mmHg 86%
    15:00 +3°C° 0 mm 1 mps 613 mmHg 86%
    16:00 +2°C° 0 mm 1 mps 613 mmHg 87%
    17:00 +1°C° 0 mm 1 mps 613 mmHg 88%
    18:00 0°C° 0 mm 1 mps 613 mmHg 90%
    19:00 -2°C° 0 mm 2 mps 613 mmHg 90%
    20:00 -3°C° 0 mm 2 mps 613 mmHg 91%
    21:00 -3°C° 0 mm 2 mps 613 mmHg 91%
    22:00 -3°C° 0.1 mm 2 mps 613 mmHg 91%
    23:00 -3°C° 0.1 mm 2 mps 613 mmHg 91%

    17 December, Tuesday

    Time Temperature Precipitation Wind Pressure Humidity
    00:00 -3°C° 0.1 mm 2 mps 613 mmHg 91%
    01:00 -3°C° 0.1 mm 2 mps 613 mmHg 91%
    02:00 -3°C° 0.1 mm 2 mps 614 mmHg 91%
    03:00 -3°C° 0.1 mm 2 mps 614 mmHg 91%
    04:00 -3°C° 0 mm 2 mps 614 mmHg 91%
    05:00 -3°C° 0 mm 2 mps 614 mmHg 91%
    06:00 -3°C° 0 mm 2 mps 614 mmHg 91%
    07:00 -3°C° 0 mm 2 mps 614 mmHg 91%
    08:00 -2°C° 0 mm 2 mps 614 mmHg 90%
    09:00 -2°C° 0 mm 2 mps 615 mmHg 89%
    10:00 -1°C° 0 mm 2 mps 615 mmHg 87%
    11:00 +1°C° 0 mm 2 mps 614 mmHg 86%
    12:00 +1°C° 0 mm 2 mps 614 mmHg 85%
    13:00 +1°C° 0 mm 2 mps 614 mmHg 84%
    14:00 +1°C° 0 mm 2 mps 614 mmHg 84%
    15:00 +2°C° 0 mm 1 mps 614 mmHg 83%
    16:00 +1°C° 0 mm 1 mps 614 mmHg 84%
    17:00 -2°C° 0 mm 2 mps 614 mmHg 84%
    18:00 -3°C° 0 mm 2 mps 614 mmHg 84%
    19:00 -3°C° 0 mm 2 mps 614 mmHg 85%
    20:00 -4°C° 0 mm 2 mps 614 mmHg 86%
    21:00 -4°C° 0 mm 2 mps 614 mmHg 87%
    22:00 -4°C° 0 mm 2 mps 614 mmHg 87%
    23:00 -2°C° 0 mm 1 mps 615 mmHg 86%
    Show more